Location: Boughton Aulph
(51.1833°N, 0.9000°E)
Time: 12:56:26
(UTC+00:00)

Daily predictions for brighter satellites

Satellite Brightness Start Highest point End
(mag) Time Altitude Azimuth Time Altitude Azimuth Time Altitude Azimuth
SMAP 3.5 16:26:00 10° SE 16:30:18 38° ENE 16:34:37 10° N
CZ-2C R/B 2.9 16:27:30 10° SSE 16:32:20 66° ENE 16:37:05 10° N
Cosmos 1898 Rocket 3.7 16:27:39 10° NNW 16:32:46 48° ENE 16:37:49 10° SE
Cosmos 44 3.7 16:28:26 10° NW 16:33:16 66° SW 16:37:46 10° SSE
Cosmos 1805 Rocket 4.5 16:29:49 10° N 16:33:32 27° ENE 16:37:13 10° SE
Cosmos 1461 4.0 16:29:54 10° WSW 16:33:47 36° NW 16:37:35 10° NNE
Sich 1 4.2 16:30:45 10° NNE 16:34:07 22° ENE 16:37:31 10° ESE
Okean 3 Rocket 4.2 16:32:35 10° NNW 16:37:04 64° W 16:41:29 10° S
Cosmos 2360 Rocket 4.0 16:34:54 10° N 16:37:15 12° NNE 16:39:35 10° NE
Cosmos 1842 Rocket 3.8 16:35:38 10° S 16:39:58 54° E 16:44:21 10° NNE
Cosmos 2221 2.6 16:35:50 10° S 16:40:02 60° E 16:44:19 10° NNE
Cosmos 1513 Rocket 4.5 16:34:24 10° S 16:40:30 76° E 16:46:44 10° NNE
SL-08 R/B 3.3 16:39:55 10° NNE 16:44:41 72° ESE 16:49:19 10° S
deb Kosmos-1763 4.1 16:45:57 10° SSW 16:49:22 71° WNW 16:52:47 10° NNE
Cosmos 2084 3.6 16:45:10 10° NW 16:49:26 82° SW 16:53:53 10° SE
Cosmos 1656 4.0 16:44:25 10° NNW 16:49:57 75° WSW 16:55:32 10° SSE
AQUARIUS 4.3 16:49:29 10° SE 16:53:50 51° ENE 16:58:12 10° N
NOSS 2-1 (E) 3.7 16:51:38 10° WSW 16:54:44 43° NW 16:58:03 11° NE
FengYun 1-2 T 4.2 16:49:44 10° SSE 16:55:19 78° ENE 17:00:53 10° NNW
MOS 1 Rocket 4.4 16:50:30 10° N 16:55:26 49° WNW 17:00:03 10° SW
NOSS 2-2 (C) 4.2 16:51:09 10° NW 16:55:48 56° NE 17:02:15 10° ESE
H-2A R/B 2.5 16:51:36 10° SE 16:56:19 38° ENE 17:00:57 10° N
Cosmos 2034 Rocket 4.0 16:50:48 10° S 16:56:51 66° E 17:02:58 10° NNE
Cosmos 1666 4.1 16:54:41 10° NNE 16:57:09 17° ENE 16:59:36 10° ESE
ERBS 2.5 16:54:06 10° WSW 16:57:16 55° NNW 16:59:46 15° NE
Cosmos 2322 Rocket 3.7 16:53:30 10° NNW 16:57:18 18° NNE 17:00:05 13° ENE
USA 306 3.1 16:56:06 10° W 17:00:20 62° N 17:03:44 15° ENE
Cosmos 1697 Rocket 2.6 16:55:40 10° NNW 17:01:19 76° ENE 17:06:56 10° SE
Cosmos 1271 Rocket 4.1 16:58:17 10° SW 17:02:01 40° WNW 17:05:49 10° N
USA 267 3.4 16:58:13 12° ENE 17:04:21 69° SE 17:10:52 10° SW
Cosmos 2369 3.8 16:58:57 10° NNW 17:04:38 58° NE 17:10:16 10° SE
Cosmos 1980 Rocket 2.4 16:59:35 10° NNW 17:05:06 48° NE 17:10:33 10° SE
COSMO-SKYMED 1 4.0 17:05:08 15° ENE 17:06:56 19° E 17:10:02 10° SE
Cosmos 1763 Rocket 3.6 17:03:30 10° S 17:08:26 56° ESE 17:13:28 10° NNE
Cosmos 1939 Rocket 2.9 17:05:48 10° SSE 17:09:55 89° ENE 17:14:02 10° NNW
SL-24 R/B - RUBIN 2 3.6 17:05:27 10° NW 17:10:03 57° NE 17:14:22 10° ESE
Meteor 1-25 Rocket 4.1 17:04:45 10° N 17:10:20 75° ENE 17:15:56 10° SSE
Cosmos 841 Rocket 4.3 17:09:37 10° SSE 17:14:04 30° ESE 17:17:16 16° NE
Cosmos 1937 Rocket 3.5 17:09:03 10° NNW 17:14:24 73° ENE 17:19:43 10° SSE
SL-16 R/B 3.3 17:10:11 10° NNW 17:14:45 24° NE 17:17:26 17° ENE
Cosmos 1812 4.0 17:13:15 10° SE 17:16:08 20° E 17:16:31 20° ENE
Cosmos 1633 Rocket 3.9 17:13:43 10° N 17:17:30 27° ENE 17:21:15 10° SE
Cosmos 1634 Rocket 4.2 17:12:34 10° SSE 17:18:36 48° E 17:24:38 10° NNE
USA 307 3.1 17:14:25 10° W 17:18:40 60° N 17:21:20 21° ENE
USA 229 DEB 4.2 17:11:45 10° NW 17:19:00 73° SW 17:26:44 10° SSE
USA 229 4.2 17:11:50 10° NW 17:19:05 73° SW 17:26:49 10° SSE
Cosmos 2082 Rocket 3.0 17:16:42 10° SSE 17:21:33 30° ESE 17:24:28 19° ENE
YAOGAN 1 3.9 17:22:20 19° NE 17:22:20 19° NE 17:25:00 10° NNE
Cosmos 2333 Rocket 4.0 17:19:52 10° N 17:22:49 14° NNE 17:24:10 13° NE
Cosmos 2026 Rocket 3.9 17:16:56 10° N 17:23:05 69° ENE 17:29:09 10° SSE
NOAA 6 4.2 17:18:08 10° SSE 17:23:17 78° WSW 17:28:27 10° NNW
SeaSat 1 4.3 17:20:11 10° NNE 17:24:02 23° NW 17:27:52 10° W
Cosmos 2195 Rocket 4.4 17:20:09 10° N 17:26:21 83° E 17:32:32 10° S
CZ-4B DEB 4.2 17:22:21 10° SSE 17:27:53 90° ENE 17:33:25 10° NNW
CORIOLIS 4.3 17:22:35 10° SSE 17:28:00 81° WSW 17:33:29 10° NNW
ATLAS 2AS CENTAUR R/B 3.9 17:21:25 10° WNW 17:28:18 34° NNW 17:33:27 16° NE
Cosmos 372 Rocket 3.9 17:23:30 10° NNW 17:28:43 64° ENE 17:33:55 10° SE
Cosmos 1602 3.6 17:25:09 10° N 17:29:01 87° E 17:32:53 10° S
Cosmos 2278 3.8 17:23:29 10° NNW 17:29:06 52° NE 17:34:39 10° SE
Cosmos 1743 Rocket 4.1 17:26:50 10° NNW 17:31:06 60° W 17:35:21 10° S
Okean O Rocket 2.0 17:26:56 10° SE 17:31:06 41° ENE 17:35:19 10° N
ATLAS CENTAUR R/B 3.3 17:29:41 10° W 17:33:13 24° NNW 17:36:14 13° NNE
SL-16 R/B 4.5 17:33:21 10° NNW 17:34:50 11° NNW 17:36:19 10° N
Meteor 2-14 Rocket 4.3 17:29:11 10° N 17:35:19 78° ENE 17:41:24 10° SSE
Cosmos 1782 2.8 17:33:00 10° S 17:36:54 55° E 17:39:44 18° NNE
Cosmos 1151 Rocket 3.7 17:33:06 10° SSE 17:36:58 33° E 17:38:08 28° ENE
COSMOS 2406 3.3 17:33:21 10° SSW 17:39:00 62° ESE 17:43:04 19° NE
USA 234 4.0 17:33:25 10° SE 17:39:47 53° SW 17:46:10 10° WNW
COSMOS 2455 3.2 17:35:05 10° S 17:40:46 45° ESE 17:43:55 25° ENE
USA 308 3.1 17:36:56 10° W 17:41:09 58° N 17:42:51 33° ENE
Cosmos 1666 Rocket 3.6 17:38:10 10° N 17:42:34 54° ENE 17:46:54 10° SSE
ARGOS 3.2 17:39:32 10° SSE 17:44:50 59° ENE 17:50:09 10° N
Cosmos 1833 Rocket 2.6 17:39:54 10° SSW 17:45:31 84° ESE 17:49:48 18° NNE
Cosmos 1470 Rocket 4.4 17:41:35 10° N 17:45:00 30° NE 17:45:00 30° NE
ISS -3.2 17:45:31 10° W 17:48:52 56° SSW 17:50:10 32° SE
NOSS 2-2 (D) 4.4 17:44:09 10° NW 17:49:08 80° SW 17:56:09 10° SE
Cosmos 1328 Rocket 4.3 17:47:18 10° SSE 17:50:52 33° ESE 17:50:52 33° ESE
Cosmos 2219 Rocket 3.9 17:49:07 10° N 17:52:20 15° NNE 17:52:22 15° NNE
CZ-2D R/B 3.6 17:48:38 10° S 17:52:26 66° WSW 17:56:16 10° NNW
PAYLOAD B 4.5 17:49:20 10° S 17:54:56 73° WSW 18:00:34 10° NNW
SKYMED 2 3.7 17:53:45 33° NE 17:55:22 51° E 17:59:35 10° S
CZ-4 R/B 4.3 17:51:28 10° SSE 17:55:32 63° ENE 17:59:39 10° N
Lacrosse 5 rocket 1.3 17:51:58 10° WNW 17:55:48 56° NNE 17:56:30 48° ENE
Meteor 2-21 Rocket 4.3 17:50:55 10° N 17:57:06 84° E 18:03:11 10° SSE
CZ-4 R/B 3.3 17:59:49 17° N 17:59:49 17° N 18:00:54 10° N
Cosmos 2298 Rocket 4.3 17:53:57 10° NNW 17:59:02 43° ENE 18:00:27 36° E
Landsat 5 4.1 18:00:26 36° SE 18:00:26 36° SE 18:03:30 10° SSE
Cosmos 1570 Rocket 4.4 17:56:32 10° S 18:01:24 40° ESE 18:02:05 38° E
CZ-4B R/B 3.1 17:56:22 10° SSE 18:01:48 87° WSW 18:07:11 10° NNW
ATLAS CENTAUR R/B 2.5 17:53:18 10° SW 18:02:01 78° SSE 18:03:25 44° ENE
Cosmos 1500 3.7 17:59:37 10° NNW 18:03:19 58° W 18:06:59 10° S
CZ-2C R/B 2.5 17:59:22 17° NNE 18:03:21 62° ESE 18:08:28 10° S
SL-08 RB Rocket 3.7 18:00:03 10° SSE 18:04:36 59° ENE 18:09:09 10° N
GEOS 3 Rocket 3.5 18:02:08 27° ESE 18:05:02 71° NE 18:10:13 10° NW
Cosmos 540 Rocket 3.4 18:00:09 10° SSW 18:05:16 87° WNW 18:08:24 24° NNE
Meteor 1-11 Rocket 4.0 18:01:33 10° N 18:06:52 42° ENE 18:07:51 38° E
Cosmos 1818 3.5 18:01:23 10° NW 18:06:53 65° NE 18:09:03 36° ESE
USA 305 2.9 18:04:12 10° WNW 18:08:23 60° N 18:08:56 55° NE
Cosmos 1814 Rocket 4.1 18:04:01 10° S 18:09:05 52° ESE 18:10:09 44° ENE
Cosmos 44 Rocket 3.2 18:05:44 10° NW 18:10:42 64° NE 18:11:47 49° E
CZ-4C R/B 2.9 18:03:51 10° NW 18:10:54 87° SW 18:19:16 10° SE
Sich 1 4.1 18:07:55 10° NNW 18:12:02 45° W 18:16:08 10° SSW
Meteor 1-26 Rocket 4.4 18:06:40 10° SSW 18:12:40 80° WNW 18:18:45 10° N
Feng Yun 1-1 Rocket 4.2 18:14:45 10° SSE 18:20:39 76° ENE 18:26:32 10° NNW
Cosmos 2360 Rocket 3.2 18:18:08 10° NNW 18:22:14 30° NNE 18:22:14 30° NNE
COSMOS 2428 4.5 18:24:55 10° NNW 18:27:32 17° NNE 18:27:32 17° NNE
deb Chang Zheng 4 4.4 18:24:46 10° S 18:28:58 50° W 18:33:11 10° NNW
Cosmos 1666 3.5 18:29:21 10° NNW 18:32:58 48° W 18:36:33 10° S
ERBS 4.4 18:30:47 10° WNW 18:32:20 21° NW 18:32:20 21° NW
Cosmos 2208 Rocket 4.1 18:28:46 10° S 18:33:46 59° SE 18:33:46 59° SE
H-2A R/B 3.5 18:31:00 10° SSW 18:35:46 37° W 18:40:27 10° NNW
Cosmos 2150 Rocket 3.8 18:31:51 10° NNW 18:37:02 74° ENE 18:37:02 74° ENE
USA 306 3.4 18:36:16 10° WNW 18:39:44 53° NW 18:39:44 53° NW
Cosmos 2322 Rocket 2.4 18:36:59 10° NNW 18:41:56 53° NNE 18:41:56 53° NNE
COSMO-SKYMED 1 3.1 18:42:21 43° NNW 18:43:28 57° WNW 18:47:42 10° SSW
USA 267 3.4 18:45:34 47° NE 18:47:22 64° NNW 18:53:49 10° W
Cosmos 2279 Rocket 4.3 18:41:57 10° SSW 18:48:07 66° WNW 18:54:19 10° N
Cosmos 1980 Rocket 3.6 18:43:51 10° NW 18:48:59 36° WSW 18:54:04 10° S
Cosmos 2266 Rocket 4.0 18:43:30 10° N 18:49:54 88° W 18:56:20 10° S
Cosmos 1812 4.0 18:48:00 10° SW 18:51:36 39° WNW 18:51:36 39° WNW
Cosmos 1633 Rocket 4.5 18:51:21 10° NNW 18:55:22 37° W 18:59:23 10° SSW
Cosmos 841 Rocket 4.3 18:50:48 10° SW 18:55:46 47° WNW 18:57:22 35° NNW
YAOGAN 1 4.0 18:59:29 31° NNW 18:59:29 31° NNW 19:01:53 10° NNW
Cosmos 1125 Rocket 3.6 18:52:47 10° NNW 18:57:27 70° NW 18:57:27 70° NW
USA 307 4.1 18:54:35 10° WNW 18:57:22 39° WNW 18:57:22 39° WNW
SL-16 R/B 2.1 18:53:56 10° NNW 18:59:21 81° NNW 18:59:21 81° NNW
Cosmos 2237 Rocket 4.4 19:00:25 10° N 19:01:32 13° N 19:01:32 13° N
Meteor 2-15 Rocket 4.3 18:57:42 10° S 19:03:21 76° SSE 19:03:21 76° SSE
Cosmos 2082 Rocket 2.7 18:59:44 10° SW 19:05:21 57° NW 19:06:21 50° NNW
Okean O Rocket 3.7 19:03:47 10° SSW 19:07:35 27° W 19:11:25 10° NW
Cosmos 2333 Rocket 3.8 19:03:34 10° NNW 19:06:12 24° N 19:06:12 24° N
ATLAS CENTAUR R/B 4.1 19:10:53 10° NW 19:12:21 14° NNW 19:12:21 14° NNW
NOSS 3-4 (A) 4.3 19:12:02 10° NW 19:17:15 42° N 19:17:15 42° N
NOSS 3-4 (C) 4.3 19:12:08 10° NW 19:17:21 42° N 19:17:21 42° N
ATLAS 2AS CENTAUR R/B 3.7 19:14:28 10° NW 19:20:53 35° N 19:20:53 35° N
ISS -0.2 19:23:05 10° WSW 19:23:10 10° WSW 19:23:10 10° WSW
COSMOS 2455 3.5 19:20:56 10° WSW 19:26:44 48° NW 19:27:05 47° NNW
Cosmos 1833 Rocket 4.4 19:25:32 10° W 19:30:09 25° NW 19:31:31 23° NNW
Lacrosse 5 rocket 4.1 19:31:06 10° WNW 19:32:07 17° WNW 19:32:07 17° WNW
Cosmos 2219 Rocket 4.2 19:32:25 10° NNW 19:34:05 19° NNW 19:34:05 19° NNW
Cosmos 2360 Rocket 4.2 20:01:59 10° NW 20:04:00 23° NW 20:04:00 23° NW
Cosmos 2322 Rocket 4.4 20:21:30 10° NW 20:23:46 21° WNW 20:23:46 21° WNW
